Time,TemperatureF,DewpointF,PressureIn,WindDirection,WindDirectionDegrees,WindSpeedMPH,WindSpeedGustMPH,Humidity,HourlyPrecipIn,Conditions,Clouds,dailyrainin,SoftwareType,DateUTC
2013-07-10 00:02:00,86.8,70.8,29.97,SW,226,4.0,11.0,59,0.00,,---,0.00,VWS V13.01,2013-07-10 05:02:00,
2013-07-10 00:07:00,86.8,70.8,29.97,SW,227,0.0,2.0,59,0.00,,---,0.00,VWS V13.01,2013-07-10 05:07:00,
2013-07-10 00:12:00,86.5,70.5,29.97,SW,215,2.0,7.0,59,0.00,,---,0.00,VWS V13.01,2013-07-10 05:12:00,
2013-07-10 00:17:00,86.3,70.3,29.97,SW,226,0.0,9.0,59,0.00,,---,0.00,VWS V13.01,2013-07-10 05:17:00,
2013-07-10 00:22:00,86.2,70.7,29.97,SSW,209,1.0,9.0,60,0.00,,---,0.00,VWS V13.01,2013-07-10 05:22:00,
2013-07-10 00:27:00,86.0,70.5,29.97,SW,224,1.0,9.0,60,0.00,,---,0.00,VWS V13.01,2013-07-10 05:27:00,
2013-07-10 00:32:00,85.8,70.3,29.97,SW,225,0.0,9.0,60,0.00,,---,0.00,VWS V13.01,2013-07-10 05:32:00,
2013-07-10 00:37:00,85.7,70.2,29.97,SW,230,0.0,0.0,60,0.00,,---,0.00,VWS V13.01,2013-07-10 05:37:00,
2013-07-10 00:42:00,85.6,70.6,29.97,WSW,238,0.0,7.0,61,0.00,,---,0.00,VWS V13.01,2013-07-10 05:42:00,
2013-07-10 00:47:00,85.6,70.6,29.98,WSW,238,0.0,7.0,61,0.00,,---,0.00,VWS V13.01,2013-07-10 05:47:00,
2013-07-10 00:52:00,85.6,70.6,29.98,WSW,237,0.0,7.0,61,0.00,,---,0.00,VWS V13.01,2013-07-10 05:52:00,
2013-07-10 00:57:00,85.8,70.3,29.98,SW,228,0.0,7.0,60,0.00,,---,0.00,VWS V13.01,2013-07-10 05:57:00,
2013-07-10 01:02:00,86.0,70.5,29.98,West,280,0.0,7.0,60,0.00,,---,0.00,VWS V13.01,2013-07-10 06:02:00,
2013-07-10 01:07:00,86.0,70.5,29.98,NW,306,0.0,5.0,60,0.00,,---,0.00,VWS V13.01,2013-07-10 06:07:00,
2013-07-10 01:12:00,85.9,70.4,29.98,WSW,250,0.0,5.0,60,0.00,,---,0.00,VWS V13.01,2013-07-10 06:12:00,
2013-07-10 01:17:00,85.8,70.3,29.98,SW,232,3.0,5.0,60,0.00,,---,0.00,VWS V13.01,2013-07-10 06:17:00,
2013-07-10 01:22:00,85.7,70.7,29.97,SW,232,0.0,5.0,61,0.00,,---,0.00,VWS V13.01,2013-07-10 06:22:00,
2013-07-10 01:27:00,85.5,70.5,29.97,SW,221,2.0,5.0,61,0.00,,---,0.00,VWS V13.01,2013-07-10 06:27:00,
2013-07-10 01:32:00,85.3,70.3,29.97,SW,227,0.0,6.0,61,0.00,,---,0.00,VWS V13.01,2013-07-10 06:32:00,
2013-07-10 01:37:00,85.1,70.2,29.97,SW,222,0.0,4.0,61,0.00,,---,0.00,VWS V13.01,2013-07-10 06:37:00,
2013-07-10 01:42:00,85.0,70.1,29.97,SW,221,0.0,5.0,61,0.00,,---,0.00,VWS V13.01,2013-07-10 06:42:00,
2013-07-10 01:47:00,84.8,70.3,29.97,SW,215,3.0,8.0,62,0.00,,---,0.00,VWS V13.01,2013-07-10 06:47:00,
2013-07-10 01:52:00,84.7,70.2,29.97,SW,232,0.0,8.0,62,0.00,,---,0.00,VWS V13.01,2013-07-10 06:52:00,
2013-07-10 01:57:00,84.7,70.2,29.97,SW,219,0.0,10.0,62,0.00,,---,0.00,VWS V13.01,2013-07-10 06:57:00,
2013-07-10 02:02:00,84.8,70.3,29.97,South,169,5.0,10.0,62,0.00,,---,0.00,VWS V13.01,2013-07-10 07:02:00,
2013-07-10 02:07:00,84.7,70.2,29.97,South,181,0.0,3.0,62,0.00,,---,0.00,VWS V13.01,2013-07-10 07:07:00,
2013-07-10 02:12:00,84.6,70.2,29.96,SW,236,2.0,4.0,62,0.00,,---,0.00,VWS V13.01,2013-07-10 07:12:00,
2013-07-10 02:17:00,84.6,70.2,29.96,SW,217,0.0,5.0,62,0.00,,---,0.00,VWS V13.01,2013-07-10 07:17:00,
2013-07-10 02:22:00,84.6,70.2,29.97,WSW,244,0.0,6.0,62,0.00,,---,0.00,VWS V13.01,2013-07-10 07:22:00,
2013-07-10 02:27:00,84.5,70.1,29.96,WSW,244,0.0,6.0,62,0.00,,---,0.00,VWS V13.01,2013-07-10 07:27:00,
2013-07-10 02:32:00,84.5,70.1,29.97,WSW,244,0.0,6.0,62,0.00,,---,0.00,VWS V13.01,2013-07-10 07:32:00,
2013-07-10 02:37:00,84.4,70.0,29.97,WSW,244,0.0,2.0,62,0.00,,---,0.00,VWS V13.01,2013-07-10 07:37:00,
2013-07-10 02:42:00,84.3,69.9,29.97,WSW,244,0.0,2.0,62,0.00,,---,0.00,VWS V13.01,2013-07-10 07:42:00,
2013-07-10 02:47:00,84.1,69.7,29.97,WSW,244,0.0,2.0,62,0.00,,---,0.00,VWS V13.01,2013-07-10 07:47:00,
2013-07-10 02:52:00,84.0,70.1,29.96,WSW,244,0.0,2.0,63,0.00,,---,0.00,VWS V13.01,2013-07-10 07:52:00,
2013-07-10 02:57:00,83.8,69.9,29.96,SSW,205,0.0,3.0,63,0.00,,---,0.00,VWS V13.01,2013-07-10 07:57:00,
2013-07-10 03:02:00,83.6,69.7,29.96,SSW,205,0.0,3.0,63,0.00,,---,0.00,VWS V13.01,2013-07-10 08:02:00,
2013-07-10 03:07:00,83.4,69.5,29.96,SW,221,0.0,0.0,63,0.00,,---,0.00,VWS V13.01,2013-07-10 08:07:00,
2013-07-10 03:12:00,83.3,69.9,29.96,SW,221,0.0,1.0,64,0.00,,---,0.00,VWS V13.01,2013-07-10 08:12:00,
2013-07-10 03:17:00,83.2,69.8,29.96,SW,220,0.0,3.0,64,0.00,,---,0.00,VWS V13.01,2013-07-10 08:17:00,
2013-07-10 03:22:00,83.1,70.1,29.96,SW,219,0.0,3.0,65,0.00,,---,0.00,VWS V13.01,2013-07-10 08:22:00,
2013-07-10 03:27:00,82.9,69.9,29.96,SW,219,0.0,3.0,65,0.00,,---,0.00,VWS V13.01,2013-07-10 08:27:00,
2013-07-10 03:32:00,82.8,69.8,29.96,SW,219,0.0,3.0,65,0.00,,---,0.00,VWS V13.01,2013-07-10 08:32:00,
2013-07-10 03:37:00,82.7,69.8,29.96,SW,219,0.0,0.0,65,0.00,,---,0.00,VWS V13.01,2013-07-10 08:37:00,
2013-07-10 03:42:00,82.5,70.0,29.96,SW,219,0.0,0.0,66,0.00,,---,0.00,VWS V13.01,2013-07-10 08:42:00,
2013-07-10 03:47:00,82.4,69.9,29.96,SW,219,0.0,0.0,66,0.00,,---,0.00,VWS V13.01,2013-07-10 08:47:00,
2013-07-10 03:52:00,82.2,69.7,29.96,SW,219,0.0,0.0,66,0.00,,---,0.00,VWS V13.01,2013-07-10 08:52:00,
2013-07-10 03:57:00,82.0,69.5,29.96,SW,220,0.0,0.0,66,0.00,,---,0.00,VWS V13.01,2013-07-10 08:57:00,
2013-07-10 04:02:00,81.8,69.8,29.96,SW,219,0.0,0.0,67,0.00,,---,0.00,VWS V13.01,2013-07-10 09:02:00,
2013-07-10 04:07:00,81.6,69.6,29.96,SW,219,0.0,0.0,67,0.00,,---,0.00,VWS V13.01,2013-07-10 09:07:00,
2013-07-10 04:12:00,81.4,69.8,29.96,SW,219,0.0,0.0,68,0.00,,---,0.00,VWS V13.01,2013-07-10 09:12:00,
2013-07-10 04:17:00,81.0,69.4,29.96,South,171,0.0,5.0,68,0.00,,---,0.00,VWS V13.01,2013-07-10 09:17:00,
2013-07-10 04:23:00,80.8,69.3,29.96,South,171,0.0,5.0,68,0.00,,---,0.00,VWS V13.01,2013-07-10 09:23:00,
2013-07-10 04:28:00,80.6,69.1,29.96,South,171,0.0,5.0,68,0.00,,---,0.00,VWS V13.01,2013-07-10 09:28:00,
2013-07-10 04:33:00,80.5,69.0,29.96,WSW,240,0.0,5.0,68,0.00,,---,0.00,VWS V13.01,2013-07-10 09:33:00,
2013-07-10 04:38:00,80.5,69.0,29.96,WSW,240,0.0,0.0,68,0.00,,---,0.00,VWS V13.01,2013-07-10 09:38:00,
2013-07-10 04:43:00,80.6,68.6,29.96,WSW,251,0.0,6.0,67,0.00,,---,0.00,VWS V13.01,2013-07-10 09:43:00,
2013-07-10 04:48:00,80.7,68.7,29.96,WSW,250,0.0,6.0,67,0.00,,---,0.00,VWS V13.01,2013-07-10 09:48:00,
2013-07-10 04:53:00,80.7,68.3,29.95,WSW,251,0.0,6.0,66,0.00,,---,0.00,VWS V13.01,2013-07-10 09:53:00,
2013-07-10 04:58:00,80.8,68.8,29.95,WSW,251,0.0,6.0,67,0.00,,---,0.00,VWS V13.01,2013-07-10 09:58:00,
2013-07-10 05:03:00,80.9,68.5,29.96,WSW,253,0.0,6.0,66,0.00,,---,0.00,VWS V13.01,2013-07-10 10:03:00,
2013-07-10 05:08:00,80.9,68.5,29.96,WSW,252,0.0,1.0,66,0.00,,---,0.00,VWS V13.01,2013-07-10 10:08:00,
2013-07-10 05:13:00,81.0,68.6,29.96,WSW,252,0.0,1.0,66,0.00,,---,0.00,VWS V13.01,2013-07-10 10:13:00,
2013-07-10 05:18:00,81.0,68.6,29.96,WSW,252,0.0,1.0,66,0.00,,---,0.00,VWS V13.01,2013-07-10 10:18:00,
2013-07-10 05:23:00,81.0,69.0,29.96,WSW,252,0.0,1.0,67,0.00,,---,0.00,VWS V13.01,2013-07-10 10:23:00,
2013-07-10 05:28:00,81.0,69.0,29.96,WSW,252,0.0,1.0,67,0.00,,---,0.00,VWS V13.01,2013-07-10 10:28:00,
2013-07-10 05:33:00,80.9,68.9,29.96,WSW,252,0.0,1.0,67,0.00,,---,0.00,VWS V13.01,2013-07-10 10:33:00,
2013-07-10 05:38:00,80.8,68.8,29.96,WSW,252,0.0,0.0,67,0.00,,---,0.00,VWS V13.01,2013-07-10 10:38:00,
2013-07-10 05:43:00,80.7,69.2,29.96,WSW,252,0.0,0.0,68,0.00,,---,0.00,VWS V13.01,2013-07-10 10:43:00,
2013-07-10 05:48:00,80.6,69.1,29.96,WSW,252,0.0,0.0,68,0.00,,---,0.00,VWS V13.01,2013-07-10 10:48:00,
2013-07-10 05:53:00,80.5,69.0,29.96,WSW,252,0.0,0.0,68,0.00,,---,0.00,VWS V13.01,2013-07-10 10:53:00,
2013-07-10 05:58:00,80.3,68.8,29.96,WSW,252,0.0,0.0,68,0.00,,---,0.00,VWS V13.01,2013-07-10 10:58:00,
2013-07-10 06:03:00,80.2,69.1,29.97,WSW,252,0.0,0.0,69,0.00,,---,0.00,VWS V13.01,2013-07-10 11:03:00,
2013-07-10 06:08:00,80.1,68.6,29.97,WSW,252,0.0,1.0,68,0.00,,---,0.00,VWS V13.01,2013-07-10 11:08:00,
2013-07-10 06:13:00,80.0,68.9,29.97,WSW,252,0.0,1.0,69,0.00,,---,0.00,VWS V13.01,2013-07-10 11:13:00,
2013-07-10 06:18:00,80.0,68.9,29.97,WSW,252,0.0,1.0,69,0.00,,---,0.00,VWS V13.01,2013-07-10 11:18:00,
2013-07-10 06:23:00,79.9,68.8,29.97,WSW,252,0.0,1.0,69,0.00,,---,0.00,VWS V13.01,2013-07-10 11:23:00,
2013-07-10 06:28:00,79.8,69.2,29.98,WSW,252,0.0,1.0,70,0.00,,---,0.00,VWS V13.01,2013-07-10 11:28:00,
2013-07-10 06:33:00,79.7,69.1,29.98,WSW,252,0.0,1.0,70,0.00,,---,0.00,VWS V13.01,2013-07-10 11:33:00,
2013-07-10 06:38:00,79.6,69.4,29.98,WSW,252,0.0,0.0,71,0.00,,---,0.00,VWS V13.01,2013-07-10 11:38:00,
2013-07-10 06:43:00,79.5,69.3,29.98,WSW,252,0.0,0.0,71,0.00,,---,0.00,VWS V13.01,2013-07-10 11:43:00,
2013-07-10 06:48:00,79.4,69.6,29.98,WSW,252,0.0,0.0,72,0.00,,---,0.00,VWS V13.01,2013-07-10 11:48:00,
2013-07-10 06:53:00,79.3,69.5,29.98,WSW,252,0.0,0.0,72,0.00,,---,0.00,VWS V13.01,2013-07-10 11:53:00,
2013-07-10 06:58:00,79.3,69.9,29.98,WSW,252,0.0,0.0,73,0.00,,---,0.00,VWS V13.01,2013-07-10 11:58:00,
2013-07-10 07:03:00,79.3,69.9,29.98,WSW,252,0.0,0.0,73,0.00,,---,0.00,VWS V13.01,2013-07-10 12:03:00,
2013-07-10 07:08:00,79.3,69.9,29.98,WSW,252,0.0,0.0,73,0.00,,---,0.00,VWS V13.01,2013-07-10 12:08:00,
2013-07-10 07:13:00,79.3,70.3,29.98,WSW,252,0.0,0.0,74,0.00,,---,0.00,VWS V13.01,2013-07-10 12:13:00,
2013-07-10 07:18:00,79.3,70.7,29.98,WSW,252,0.0,0.0,75,0.00,,---,0.00,VWS V13.01,2013-07-10 12:18:00,
2013-07-10 07:23:00,79.4,70.8,29.98,WSW,252,0.0,0.0,75,0.00,,---,0.00,VWS V13.01,2013-07-10 12:23:00,
2013-07-10 07:28:00,79.5,70.9,29.98,WSW,252,0.0,0.0,75,0.00,,---,0.00,VWS V13.01,2013-07-10 12:28:00,
2013-07-10 07:33:00,79.8,71.6,29.98,WSW,252,0.0,0.0,76,0.00,,---,0.00,VWS V13.01,2013-07-10 12:33:00,
2013-07-10 07:38:00,80.0,71.4,29.99,WSW,252,0.0,0.0,75,0.00,,---,0.00,VWS V13.01,2013-07-10 12:38:00,
2013-07-10 07:43:00,80.1,71.5,29.99,WSW,252,0.0,0.0,75,0.00,,---,0.00,VWS V13.01,2013-07-10 12:43:00,
2013-07-10 07:48:00,80.4,71.8,29.99,WSW,252,0.0,0.0,75,0.00,,---,0.00,VWS V13.01,2013-07-10 12:48:00,
2013-07-10 07:53:00,80.8,72.1,29.99,WSW,252,0.0,0.0,75,0.00,,---,0.00,VWS V13.01,2013-07-10 12:53:00,
2013-07-10 07:58:00,81.2,72.1,30.00,WSW,252,0.0,0.0,74,0.00,,---,0.00,VWS V13.01,2013-07-10 12:58:00,
2013-07-10 08:03:00,81.6,72.1,29.99,WSW,252,0.0,0.0,73,0.00,,---,0.00,VWS V13.01,2013-07-10 13:03:00,
2013-07-10 08:08:00,81.9,72.4,29.99,WSW,252,0.0,0.0,73,0.00,,---,0.00,VWS V13.01,2013-07-10 13:08:00,
2013-07-10 08:13:00,82.1,72.6,30.00,WSW,252,0.0,0.0,73,0.00,,---,0.00,VWS V13.01,2013-07-10 13:13:00,
2013-07-10 08:18:00,82.3,72.4,30.00,WSW,252,0.0,0.0,72,0.00,,---,0.00,VWS V13.01,2013-07-10 13:18:00,
2013-07-10 08:23:00,82.4,72.5,29.99,WSW,252,0.0,0.0,72,0.00,,---,0.00,VWS V13.01,2013-07-10 13:23:00,
2013-07-10 08:28:00,82.5,72.2,30.00,WSW,252,0.0,0.0,71,0.00,,---,0.00,VWS V13.01,2013-07-10 13:28:00,
2013-07-10 08:33:00,82.5,72.2,29.99,WSW,252,0.0,0.0,71,0.00,,---,0.00,VWS V13.01,2013-07-10 13:33:00,
2013-07-10 08:38:00,82.6,72.2,29.99,WSW,252,0.0,0.0,71,0.00,,---,0.00,VWS V13.01,2013-07-10 13:38:00,
2013-07-10 08:43:00,82.7,72.3,29.99,WSW,251,0.0,3.0,71,0.00,,---,0.00,VWS V13.01,2013-07-10 13:43:00,
2013-07-10 08:48:00,82.7,71.5,30.00,WSW,250,0.0,3.0,69,0.00,,---,0.00,VWS V13.01,2013-07-10 13:48:00,
2013-07-10 08:53:00,82.8,71.6,30.00,WSW,251,0.0,3.0,69,0.00,,---,0.00,VWS V13.01,2013-07-10 13:53:00,
2013-07-10 08:58:00,82.8,71.6,30.00,WSW,250,0.0,3.0,69,0.00,,---,0.00,VWS V13.01,2013-07-10 13:58:00,
2013-07-10 09:03:00,82.8,71.6,30.00,WSW,249,1.0,3.0,69,0.00,,---,0.00,VWS V13.01,2013-07-10 14:03:00,
2013-07-10 09:09:00,82.8,71.6,29.99,SW,225,1.0,2.0,69,0.00,,---,0.00,VWS V13.01,2013-07-10 14:09:00,
2013-07-10 09:14:00,82.8,71.6,30.00,SSW,202,0.0,2.0,69,0.00,,---,0.00,VWS V13.01,2013-07-10 14:14:00,
2013-07-10 09:19:00,82.8,72.0,29.99,SSW,200,0.0,4.0,70,0.00,,---,0.00,VWS V13.01,2013-07-10 14:19:00,
2013-07-10 09:24:00,82.8,72.0,29.99,South,190,0.0,4.0,70,0.00,,---,0.00,VWS V13.01,2013-07-10 14:24:00,
2013-07-10 09:29:00,82.8,72.4,29.99,South,190,0.0,4.0,71,0.00,,---,0.00,VWS V13.01,2013-07-10 14:29:00,
2013-07-10 09:34:00,82.9,72.1,29.99,South,190,0.0,4.0,70,0.00,,---,0.00,VWS V13.01,2013-07-10 14:34:00,
2013-07-10 09:39:00,83.0,71.8,29.99,South,190,0.0,0.0,69,0.00,,---,0.00,VWS V13.01,2013-07-10 14:39:00,
2013-07-10 09:44:00,83.6,71.9,29.99,South,190,0.0,0.0,68,0.00,,---,0.00,VWS V13.01,2013-07-10 14:44:00,
2013-07-10 09:49:00,84.1,72.0,29.99,South,190,0.0,0.0,67,0.00,,---,0.00,VWS V13.01,2013-07-10 14:49:00,
2013-07-10 09:54:00,84.7,72.1,29.99,SSW,196,0.0,3.0,66,0.00,,---,0.00,VWS V13.01,2013-07-10 14:54:00,
2013-07-10 09:59:00,85.5,73.3,29.98,SSW,196,0.0,3.0,67,0.00,,---,0.00,VWS V13.01,2013-07-10 14:59:00,
2013-07-10 10:04:00,85.9,71.8,29.98,South,187,0.0,3.0,63,0.00,,---,0.00,VWS V13.01,2013-07-10 15:04:00,
2013-07-10 10:09:00,86.0,71.9,29.99,SSW,196,0.0,3.0,63,0.00,,---,0.00,VWS V13.01,2013-07-10 15:09:00,
2013-07-10 10:14:00,86.3,72.2,29.98,SSE,153,1.0,3.0,63,0.00,,---,0.00,VWS V13.01,2013-07-10 15:14:00,
2013-07-10 10:19:00,86.6,72.0,29.98,South,185,0.0,4.0,62,0.00,,---,0.00,VWS V13.01,2013-07-10 15:19:00,
2013-07-10 10:24:00,86.9,72.3,29.98,South,184,0.0,4.0,62,0.00,,---,0.00,VWS V13.01,2013-07-10 15:24:00,
2013-07-10 10:29:00,87.2,72.6,29.98,South,185,0.0,4.0,62,0.00,,---,0.00,VWS V13.01,2013-07-10 15:29:00,
2013-07-10 10:34:00,87.5,72.9,29.98,South,184,0.0,4.0,62,0.00,,---,0.00,VWS V13.01,2013-07-10 15:34:00,
2013-07-10 10:39:00,87.7,73.1,29.98,South,185,3.0,3.0,62,0.00,,---,0.00,VWS V13.01,2013-07-10 15:39:00,
2013-07-10 10:44:00,88.0,73.4,29.98,South,185,0.0,3.0,62,0.00,,---,0.00,VWS V13.01,2013-07-10 15:44:00,
2013-07-10 10:49:00,88.3,73.6,29.98,South,184,0.0,4.0,62,0.00,,---,0.00,VWS V13.01,2013-07-10 15:49:00,
2013-07-10 10:54:00,88.4,72.8,29.98,South,185,0.0,5.0,60,0.00,,---,0.00,VWS V13.01,2013-07-10 15:54:00,
2013-07-10 10:59:00,88.4,73.2,29.98,South,184,0.0,5.0,61,0.00,,---,0.00,VWS V13.01,2013-07-10 15:59:00,
2013-07-10 11:04:00,88.4,72.8,29.98,South,186,0.0,5.0,60,0.00,,---,0.00,VWS V13.01,2013-07-10 16:04:00,
2013-07-10 11:09:00,88.5,72.8,29.98,South,187,0.0,4.0,60,0.00,,---,0.00,VWS V13.01,2013-07-10 16:09:00,
2013-07-10 11:14:00,88.8,73.1,29.98,South,187,0.0,5.0,60,0.00,,---,0.00,VWS V13.01,2013-07-10 16:14:00,
2013-07-10 11:19:00,89.1,72.9,29.98,South,188,0.0,5.0,59,0.00,,---,0.00,VWS V13.01,2013-07-10 16:19:00,
2013-07-10 11:24:00,89.7,74.0,29.98,South,189,0.0,5.0,60,0.00,,---,0.00,VWS V13.01,2013-07-10 16:24:00,
2013-07-10 11:29:00,90.6,73.8,29.98,NW,315,5.0,5.0,58,0.00,,---,0.00,VWS V13.01,2013-07-10 16:29:00,
2013-07-10 11:34:00,91.7,74.8,29.98,NE,34,1.0,6.0,58,0.00,,---,0.00,VWS V13.01,2013-07-10 16:34:00,
2013-07-10 11:39:00,92.1,72.5,29.97,NW,313,1.0,3.0,53,0.00,,---,0.00,VWS V13.01,2013-07-10 16:39:00,
2013-07-10 11:44:00,92.8,73.2,29.97,SW,232,1.0,6.0,53,0.00,,---,0.00,VWS V13.01,2013-07-10 16:44:00,
2013-07-10 11:49:00,93.2,73.0,29.97,WSW,253,0.0,6.0,52,0.00,,---,0.00,VWS V13.01,2013-07-10 16:49:00,
2013-07-10 11:54:00,93.9,75.3,29.97,SW,236,0.0,6.0,55,0.00,,---,0.00,VWS V13.01,2013-07-10 16:54:00,
2013-07-10 11:59:00,94.6,74.8,29.97,SSW,213,0.0,6.0,53,0.00,,---,0.00,VWS V13.01,2013-07-10 16:59:00,
2013-07-10 12:05:00,94.8,73.9,29.97,South,188,4.0,6.0,51,0.00,,---,0.00,VWS V13.01,2013-07-10 17:05:00,
2013-07-10 12:10:00,95.0,74.1,29.97,SW,231,0.0,0.0,51,0.00,,---,0.00,VWS V13.01,2013-07-10 17:10:00,
2013-07-10 12:15:00,95.2,74.2,29.97,East,90,0.0,3.0,51,0.00,,---,0.00,VWS V13.01,2013-07-10 17:15:00,
2013-07-10 12:20:00,95.4,73.8,29.96,SSE,165,2.0,5.0,50,0.00,,---,0.00,VWS V13.01,2013-07-10 17:20:00,
2013-07-10 12:25:00,95.3,74.9,29.96,SW,230,0.0,7.0,52,0.00,,---,0.00,VWS V13.01,2013-07-10 17:25:00,
2013-07-10 12:30:00,95.6,74.0,29.96,SSW,206,0.0,7.0,50,0.00,,---,0.00,VWS V13.01,2013-07-10 17:30:00,
2013-07-10 12:35:00,95.6,74.6,29.95,SW,218,0.0,7.0,51,0.00,,---,0.00,VWS V13.01,2013-07-10 17:35:00,
2013-07-10 12:40:00,95.9,73.7,29.95,South,187,0.0,9.0,49,0.00,,---,0.00,VWS V13.01,2013-07-10 17:40:00,
2013-07-10 12:45:00,95.5,75.1,29.95,SSW,192,0.0,9.0,52,0.00,,---,0.00,VWS V13.01,2013-07-10 17:45:00,
2013-07-10 12:50:00,95.2,74.8,29.95,SW,219,0.0,9.0,52,0.00,,---,0.00,VWS V13.01,2013-07-10 17:50:00,
2013-07-10 12:55:00,95.8,75.4,29.95,SW,232,0.0,9.0,52,0.00,,---,0.00,VWS V13.01,2013-07-10 17:55:00,
2013-07-10 13:00:00,96.1,73.9,29.95,South,188,0.0,9.0,49,0.00,,---,0.00,VWS V13.01,2013-07-10 18:00:00,
2013-07-10 13:05:00,96.5,75.4,29.95,WSW,237,1.0,9.0,51,0.00,,---,0.00,VWS V13.01,2013-07-10 18:05:00,
2013-07-10 13:10:00,96.5,74.2,29.94,WSW,239,1.0,3.0,49,0.00,,---,0.00,VWS V13.01,2013-07-10 18:10:00,
2013-07-10 13:15:00,96.2,74.6,29.94,South,172,0.0,7.0,50,0.00,,---,0.00,VWS V13.01,2013-07-10 18:15:00,
2013-07-10 13:20:00,96.5,74.2,29.94,SW,219,2.0,7.0,49,0.00,,---,0.00,VWS V13.01,2013-07-10 18:20:00,
2013-07-10 13:25:00,96.7,75.6,29.94,SW,222,2.0,7.0,51,0.00,,---,0.00,VWS V13.01,2013-07-10 18:25:00,
2013-07-10 13:30:00,97.2,74.2,29.93,South,190,0.0,7.0,48,0.00,,---,0.00,VWS V13.01,2013-07-10 18:30:00,
2013-07-10 13:35:00,97.2,75.5,29.93,SW,225,1.0,7.0,50,0.00,,---,0.00,VWS V13.01,2013-07-10 18:35:00,
2013-07-10 13:40:00,97.1,73.5,29.93,SSW,212,0.0,5.0,47,0.00,,---,0.00,VWS V13.01,2013-07-10 18:40:00,
2013-07-10 13:45:00,96.8,74.5,29.93,SSW,197,0.0,5.0,49,0.00,,---,0.00,VWS V13.01,2013-07-10 18:45:00,
2013-07-10 13:50:00,97.5,75.1,29.92,SSW,198,0.0,5.0,49,0.00,,---,0.00,VWS V13.01,2013-07-10 18:50:00,
2013-07-10 13:55:00,99.1,75.3,29.92,SSW,198,0.0,5.0,47,0.00,,---,0.00,VWS V13.01,2013-07-10 18:55:00,
2013-07-10 14:00:00,99.7,74.6,29.92,SW,236,0.0,6.0,45,0.00,,---,0.00,VWS V13.01,2013-07-10 19:00:00,
2013-07-10 14:05:00,100.3,74.5,29.92,SW,236,0.0,6.0,44,0.00,,---,0.00,VWS V13.01,2013-07-10 19:05:00,
2013-07-10 14:10:00,99.1,72.7,29.92,WSW,247,0.0,3.0,43,0.00,,---,0.00,VWS V13.01,2013-07-10 19:10:00,
2013-07-10 14:15:00,99.2,73.5,29.92,SW,215,0.0,6.0,44,0.00,,---,0.00,VWS V13.01,2013-07-10 19:15:00,
2013-07-10 14:20:00,99.1,73.4,29.91,SSW,211,0.0,6.0,44,0.00,,---,0.00,VWS V13.01,2013-07-10 19:20:00,
2013-07-10 14:25:00,99.0,72.6,29.91,SSW,211,0.0,6.0,43,0.00,,---,0.00,VWS V13.01,2013-07-10 19:25:00,
2013-07-10 14:30:00,98.6,72.9,29.91,SSW,211,0.0,6.0,44,0.00,,---,0.00,VWS V13.01,2013-07-10 19:30:00,
2013-07-10 14:35:00,98.7,72.3,29.91,SSW,213,0.0,6.0,43,0.00,,---,0.00,VWS V13.01,2013-07-10 19:35:00,
2013-07-10 14:40:00,99.0,72.6,29.90,SSW,213,0.0,3.0,43,0.00,,---,0.00,VWS V13.01,2013-07-10 19:40:00,
2013-07-10 14:45:00,99.7,73.9,29.90,SW,215,0.0,4.0,44,0.00,,---,0.00,VWS V13.01,2013-07-10 19:45:00,
2013-07-10 14:50:00,101.0,73.7,29.90,SW,229,0.0,5.0,42,0.00,,---,0.00,VWS V13.01,2013-07-10 19:50:00,
2013-07-10 14:55:00,101.5,73.4,29.89,North,5,0.0,6.0,41,0.00,,---,0.00,VWS V13.01,2013-07-10 19:55:00,
2013-07-10 15:00:00,101.0,73.0,29.89,North,5,1.0,6.0,41,0.00,,---,0.00,VWS V13.01,2013-07-10 20:00:00,
2013-07-10 15:05:00,101.1,73.8,29.89,SW,232,0.0,6.0,42,0.00,,---,0.00,VWS V13.01,2013-07-10 20:05:00,
2013-07-10 15:10:00,101.9,73.1,29.88,WSW,256,0.0,5.0,40,0.00,,---,0.00,VWS V13.01,2013-07-10 20:10:00,
2013-07-10 15:16:00,101.9,73.8,29.88,NNW,345,0.0,7.0,41,0.00,,---,0.00,VWS V13.01,2013-07-10 20:16:00,
2013-07-10 15:21:00,101.4,73.3,29.88,SW,236,0.0,9.0,41,0.00,,---,0.00,VWS V13.01,2013-07-10 20:21:00,
2013-07-10 15:26:00,100.9,72.9,29.88,NNW,341,0.0,9.0,41,0.00,,---,0.00,VWS V13.01,2013-07-10 20:26:00,
2013-07-10 15:31:00,100.4,73.9,29.89,West,277,0.0,9.0,43,0.00,,---,0.00,VWS V13.01,2013-07-10 20:31:00,
2013-07-10 15:36:00,99.2,73.5,29.89,WNW,297,0.0,9.0,44,0.00,,---,0.00,VWS V13.01,2013-07-10 20:36:00,
2013-07-10 15:41:00,99.9,74.8,29.89,SW,232,0.0,5.0,45,0.00,,---,0.00,VWS V13.01,2013-07-10 20:41:00,
2013-07-10 15:46:00,100.5,73.2,29.88,NW,324,0.0,6.0,42,0.00,,---,0.00,VWS V13.01,2013-07-10 20:46:00,
2013-07-10 15:51:00,101.3,75.4,29.87,SW,234,4.0,6.0,44,0.00,,---,0.00,VWS V13.01,2013-07-10 20:51:00,
2013-07-10 15:56:00,101.5,75.5,29.87,SSW,199,7.0,12.0,44,0.00,,---,0.00,VWS V13.01,2013-07-10 20:56:00,
2013-07-10 16:01:00,99.8,74.7,29.87,SW,236,3.0,12.0,45,0.00,,---,0.00,VWS V13.01,2013-07-10 21:01:00,
2013-07-10 16:06:00,99.6,73.8,29.87,WNW,303,5.0,12.0,44,0.00,,---,0.00,VWS V13.01,2013-07-10 21:06:00,
2013-07-10 16:07:00,99.5,74.4,29.87,NW,315,0.0,0.0,45,0.00,,---,0.00,VWS V13.01,2013-07-10 21:07:00,
2013-07-10 16:12:00,99.1,74.1,29.86,SW,223,2.0,6.0,45,0.00,,---,0.00,VWS V13.01,2013-07-10 21:12:00,
2013-07-10 16:17:00,98.7,73.0,29.85,SSW,201,0.0,7.0,44,0.00,,---,0.00,VWS V13.01,2013-07-10 21:17:00,
2013-07-10 16:22:00,98.5,73.5,29.85,SSW,201,0.0,7.0,45,0.00,,---,0.00,VWS V13.01,2013-07-10 21:22:00,
2013-07-10 16:28:00,99.0,74.0,29.84,SSW,201,0.0,7.0,45,0.00,,---,0.00,VWS V13.01,2013-07-10 21:28:00,
2013-07-10 16:33:00,100.6,73.3,29.84,SSW,207,2.0,10.0,42,0.00,,---,0.00,VWS V13.01,2013-07-10 21:33:00,
2013-07-10 16:38:00,99.7,72.5,29.84,SW,235,6.0,7.0,42,0.00,,---,0.00,VWS V13.01,2013-07-10 21:38:00,
2013-07-10 16:43:00,99.8,73.3,29.84,South,179,7.0,9.0,43,0.00,,---,0.00,VWS V13.01,2013-07-10 21:43:00,
2013-07-10 16:48:00,99.8,74.0,29.84,SW,223,0.0,12.0,44,0.00,,---,0.00,VWS V13.01,2013-07-10 21:48:00,
2013-07-10 16:53:00,100.0,74.2,29.84,South,179,1.0,12.0,44,0.00,,---,0.00,VWS V13.01,2013-07-10 21:53:00,
2013-07-10 16:58:00,98.9,72.5,29.84,South,187,4.0,12.0,43,0.00,,---,0.00,VWS V13.01,2013-07-10 21:58:00,
2013-07-10 17:03:00,99.2,73.5,29.84,SSW,200,0.0,12.0,44,0.00,,---,0.00,VWS V13.01,2013-07-10 22:03:00,
2013-07-10 17:08:00,99.8,73.3,29.84,WSW,245,0.0,10.0,43,0.00,,---,0.00,VWS V13.01,2013-07-10 22:08:00,
2013-07-10 17:13:00,99.6,73.1,29.84,South,179,5.0,10.0,43,0.00,,---,0.00,VWS V13.01,2013-07-10 22:13:00,
2013-07-10 17:18:00,98.0,73.7,29.84,SSW,204,3.0,11.0,46,0.00,,---,0.00,VWS V13.01,2013-07-10 22:18:00,
2013-07-10 17:23:00,96.8,73.3,29.84,SW,214,0.0,11.0,47,0.00,,---,0.00,VWS V13.01,2013-07-10 22:23:00,
2013-07-10 17:28:00,96.4,72.9,29.84,SSW,193,10.0,11.0,47,0.00,,---,0.00,VWS V13.01,2013-07-10 22:28:00,
2013-07-10 17:33:00,96.0,72.5,29.84,SSE,165,3.0,13.0,47,0.00,,---,0.00,VWS V13.01,2013-07-10 22:33:00,
2013-07-10 17:38:00,95.4,72.6,29.84,South,187,6.0,9.0,48,0.00,,---,0.00,VWS V13.01,2013-07-10 22:38:00,
2013-07-10 17:43:00,94.8,72.7,29.85,SW,216,2.0,9.0,49,0.00,,---,0.00,VWS V13.01,2013-07-10 22:43:00,
2013-07-10 17:48:00,94.2,72.1,29.85,WSW,240,10.0,12.0,49,0.00,,---,0.00,VWS V13.01,2013-07-10 22:48:00,
2013-07-10 17:53:00,93.5,72.7,29.86,SSW,196,1.0,12.0,51,0.00,,---,0.00,VWS V13.01,2013-07-10 22:53:00,
2013-07-10 17:58:00,92.9,72.7,29.88,NE,44,9.0,12.0,52,0.00,,---,0.00,VWS V13.01,2013-07-10 22:58:00,
2013-07-10 18:03:00,92.3,70.4,29.89,East,88,10.0,15.0,49,0.00,,---,0.00,VWS V13.01,2013-07-10 23:03:00,
2013-07-10 18:08:00,90.1,69.0,29.90,NE,44,12.0,28.0,50,0.00,,---,0.00,VWS V13.01,2013-07-10 23:08:00,
2013-07-10 18:13:00,87.5,68.8,29.91,NE,49,27.0,28.0,54,0.00,,---,0.00,VWS V13.01,2013-07-10 23:13:00,
2013-07-10 18:18:00,85.8,69.8,29.92,ENE,75,15.0,28.0,59,0.00,,---,0.00,VWS V13.01,2013-07-10 23:18:00,
2013-07-10 18:23:00,83.9,70.9,29.93,East,98,18.0,28.0,65,0.00,,---,0.00,VWS V13.01,2013-07-10 23:23:00,
2013-07-10 18:28:00,82.0,71.3,29.94,NNE,28,11.0,28.0,70,0.00,,---,0.00,VWS V13.01,2013-07-10 23:28:00,
2013-07-10 18:33:00,80.3,70.9,29.94,East,87,8.0,28.0,73,0.00,,---,0.00,VWS V13.01,2013-07-10 23:33:00,
2013-07-10 18:38:00,79.6,71.4,29.94,East,99,7.0,9.0,76,0.04,,---,0.05,VWS V13.01,2013-07-10 23:38:00,
2013-07-10 18:43:00,78.8,71.7,29.94,ENE,59,13.0,13.0,79,0.13,,---,0.14,VWS V13.01,2013-07-10 23:43:00,
2013-07-10 18:48:00,77.8,71.1,29.94,SE,129,4.0,13.0,80,0.16,,---,0.17,VWS V13.01,2013-07-10 23:48:00,
2013-07-10 18:53:00,77.1,70.8,29.98,NE,44,7.0,13.0,81,0.19,,---,0.19,VWS V13.01,2013-07-10 23:53:00,
2013-07-10 18:58:00,76.3,71.1,29.98,ENE,73,8.0,13.0,84,0.23,,---,0.24,VWS V13.01,2013-07-10 23:58:00,
2013-07-10 19:03:00,75.9,71.1,29.96,South,183,10.0,13.0,85,0.37,,---,0.38,VWS V13.01,2013-07-11 00:03:00,
2013-07-10 19:08:00,75.3,70.5,29.95,SSW,200,2.0,6.0,85,0.42,,---,0.42,VWS V13.01,2013-07-11 00:08:00,
2013-07-10 19:13:00,74.8,70.3,29.94,South,182,4.0,10.0,86,0.44,,---,0.44,VWS V13.01,2013-07-11 00:13:00,
2013-07-10 19:18:00,74.1,70.0,29.92,South,184,0.0,15.0,87,0.44,,---,0.44,VWS V13.01,2013-07-11 00:18:00,
2013-07-10 19:23:00,73.5,69.7,29.92,SW,221,2.0,15.0,88,0.44,,---,0.44,VWS V13.01,2013-07-11 00:23:00,
2013-07-10 19:28:00,73.2,69.8,29.92,South,184,3.0,15.0,89,0.44,,---,0.44,VWS V13.01,2013-07-11 00:28:00,
2013-07-10 19:33:00,73.0,69.6,29.94,SW,227,2.0,15.0,89,0.44,,---,0.44,VWS V13.01,2013-07-11 00:33:00,
2013-07-10 19:38:00,72.9,69.8,29.95,SSW,196,0.0,6.0,90,0.43,,---,0.44,VWS V13.01,2013-07-11 00:38:00,
2013-07-10 19:43:00,72.9,70.1,29.95,SW,219,0.0,9.0,91,0.43,,---,0.44,VWS V13.01,2013-07-11 00:43:00,
2013-07-10 19:48:00,72.8,70.0,29.94,South,173,0.0,11.0,91,0.43,,---,0.44,VWS V13.01,2013-07-11 00:48:00,
2013-07-10 19:53:00,72.7,69.9,29.95,South,175,4.0,11.0,91,0.43,,---,0.44,VWS V13.01,2013-07-11 00:53:00,
2013-07-10 19:58:00,72.7,69.9,29.96,ESE,118,0.0,11.0,91,0.43,,---,0.44,VWS V13.01,2013-07-11 00:58:00,
2013-07-10 20:03:00,72.8,70.3,29.96,SSW,193,0.0,11.0,92,0.43,,---,0.44,VWS V13.01,2013-07-11 01:03:00,
2013-07-10 20:08:00,72.9,70.4,29.95,South,190,2.0,9.0,92,0.03,,---,0.44,VWS V13.01,2013-07-11 01:08:00,
2013-07-10 20:13:00,72.9,70.4,29.94,SW,226,1.0,12.0,92,0.03,,---,0.44,VWS V13.01,2013-07-11 01:13:00,
2013-07-10 20:18:00,73.0,70.5,29.93,WSW,246,7.0,12.0,92,0.03,,---,0.44,VWS V13.01,2013-07-11 01:18:00,
2013-07-10 20:23:00,72.8,70.3,29.93,SW,223,1.0,12.0,92,0.03,,---,0.44,VWS V13.01,2013-07-11 01:23:00,
2013-07-10 20:28:00,72.7,70.2,29.92,SSW,196,6.0,15.0,92,0.03,,---,0.44,VWS V13.01,2013-07-11 01:28:00,
2013-07-10 20:33:00,72.4,69.9,29.91,SW,216,0.0,15.0,92,0.03,,---,0.44,VWS V13.01,2013-07-11 01:33:00,
2013-07-10 20:38:00,72.3,69.8,29.91,WSW,238,2.0,7.0,92,0.00,,---,0.44,VWS V13.01,2013-07-11 01:38:00,
2013-07-10 20:43:00,72.1,69.7,29.91,SW,230,6.0,11.0,92,0.00,,---,0.44,VWS V13.01,2013-07-11 01:43:00,
2013-07-10 20:48:00,71.9,69.4,29.92,SW,229,16.0,17.0,92,0.00,,---,0.44,VWS V13.01,2013-07-11 01:48:00,
2013-07-10 20:53:00,71.7,69.3,29.93,West,279,2.0,17.0,92,0.00,,---,0.44,VWS V13.01,2013-07-11 01:53:00,
2013-07-10 20:58:00,71.5,69.1,29.93,SW,227,6.0,17.0,92,0.00,,---,0.44,VWS V13.01,2013-07-11 01:58:00,
2013-07-10 21:03:00,71.5,69.1,29.93,WNW,297,0.0,17.0,92,0.00,,---,0.44,VWS V13.01,2013-07-11 02:03:00,
2013-07-10 21:08:00,71.5,69.1,29.94,NW,309,0.0,0.0,92,0.00,,---,0.44,VWS V13.01,2013-07-11 02:08:00,
2013-07-10 21:13:00,71.6,69.5,29.94,NW,311,1.0,4.0,93,0.00,,---,0.44,VWS V13.01,2013-07-11 02:13:00,
2013-07-10 21:18:00,71.6,69.5,29.94,North,360,0.0,5.0,93,0.00,,---,0.44,VWS V13.01,2013-07-11 02:18:00,
2013-07-10 21:23:00,71.8,69.7,29.94,NNW,331,0.0,5.0,93,0.00,,---,0.44,VWS V13.01,2013-07-11 02:23:00,
2013-07-10 21:28:00,72.0,69.9,29.94,NNW,330,0.0,5.0,93,0.00,,---,0.44,VWS V13.01,2013-07-11 02:28:00,
2013-07-10 21:33:00,72.1,70.0,29.94,NNW,331,0.0,5.0,93,0.00,,---,0.44,VWS V13.01,2013-07-11 02:33:00,
2013-07-10 21:38:00,72.3,70.2,29.95,NNW,331,0.0,1.0,93,0.00,,---,0.44,VWS V13.01,2013-07-11 02:38:00,
2013-07-10 21:43:00,72.4,70.3,29.95,NNW,330,0.0,1.0,93,0.00,,---,0.44,VWS V13.01,2013-07-11 02:43:00,
2013-07-10 21:48:00,72.5,70.4,29.95,NNW,330,0.0,1.0,93,0.00,,---,0.44,VWS V13.01,2013-07-11 02:48:00,
2013-07-10 21:53:00,72.6,70.5,29.95,NNW,331,0.0,1.0,93,0.00,,---,0.44,VWS V13.01,2013-07-11 02:53:00,
2013-07-10 21:58:00,72.7,70.6,29.95,NNW,331,0.0,1.0,93,0.00,,---,0.44,VWS V13.01,2013-07-11 02:58:00,
2013-07-10 22:03:00,72.7,70.6,29.96,NNW,331,0.0,1.0,93,0.00,,---,0.44,VWS V13.01,2013-07-11 03:03:00,
2013-07-10 22:08:00,72.7,70.6,29.95,NNW,330,0.0,0.0,93,0.00,,---,0.44,VWS V13.01,2013-07-11 03:08:00,
2013-07-10 22:13:00,72.8,70.7,29.96,NNW,331,0.0,1.0,93,0.00,,---,0.44,VWS V13.01,2013-07-11 03:13:00,
2013-07-10 22:19:00,72.7,70.6,29.96,NW,321,4.0,5.0,93,0.00,,---,0.44,VWS V13.01,2013-07-11 03:19:00,
2013-07-10 22:24:00,72.7,70.6,29.96,NNW,329,3.0,5.0,93,0.00,,---,0.44,VWS V13.01,2013-07-11 03:24:00,
2013-07-10 22:29:00,72.8,70.7,29.95,NNW,332,0.0,6.0,93,0.00,,---,0.44,VWS V13.01,2013-07-11 03:29:00,
2013-07-10 22:34:00,72.9,70.8,29.95,NW,323,0.0,6.0,93,0.00,,---,0.44,VWS V13.01,2013-07-11 03:34:00,
2013-07-10 22:39:00,72.9,70.8,29.95,NW,322,0.0,0.0,93,0.00,,---,0.44,VWS V13.01,2013-07-11 03:39:00,
2013-07-10 22:44:00,73.0,70.9,29.95,NW,323,0.0,0.0,93,0.00,,---,0.44,VWS V13.01,2013-07-11 03:44:00,
2013-07-10 22:49:00,73.0,70.9,29.95,NW,323,0.0,0.0,93,0.00,,---,0.44,VWS V13.01,2013-07-11 03:49:00,
2013-07-10 22:54:00,73.0,70.9,29.95,NW,322,0.0,0.0,93,0.00,,---,0.44,VWS V13.01,2013-07-11 03:54:00,
2013-07-10 22:59:00,73.0,70.9,29.95,NW,322,0.0,0.0,93,0.00,,---,0.44,VWS V13.01,2013-07-11 03:59:00,
2013-07-10 23:01:00,73.0,70.9,29.95,NW,322,0.0,0.0,93,0.00,,---,0.44,VWS V13.01,2013-07-11 04:01:00,
2013-07-10 23:02:00,73.1,71.0,29.95,NW,323,0.0,0.0,93,0.00,,---,0.44,VWS V13.01,2013-07-11 04:02:00,
2013-07-10 23:03:00,73.1,71.0,29.96,NW,322,0.0,0.0,93,0.00,,---,0.44,VWS V13.01,2013-07-11 04:03:00,
2013-07-10 23:08:00,73.1,71.0,29.95,NW,323,0.0,0.0,93,0.00,,---,0.44,VWS V13.01,2013-07-11 04:08:00,
2013-07-10 23:13:00,73.1,71.0,29.94,NW,322,0.0,0.0,93,0.00,,---,0.44,VWS V13.01,2013-07-11 04:13:00,
2013-07-10 23:18:00,73.3,71.2,29.94,NW,323,0.0,0.0,93,0.00,,---,0.44,VWS V13.01,2013-07-11 04:18:00,
2013-07-10 23:23:00,73.3,71.2,29.93,NW,322,0.0,0.0,93,0.00,,---,0.44,VWS V13.01,2013-07-11 04:23:00,
2013-07-10 23:28:00,73.3,71.2,29.93,NW,322,0.0,0.0,93,0.00,,---,0.44,VWS V13.01,2013-07-11 04:28:00,
2013-07-10 23:33:00,73.3,71.2,29.94,NW,322,0.0,0.0,93,0.00,,---,0.44,VWS V13.01,2013-07-11 04:33:00,
2013-07-10 23:38:00,73.3,71.2,29.94,NW,322,0.0,0.0,93,0.00,,---,0.44,VWS V13.01,2013-07-11 04:38:00,
2013-07-10 23:43:00,73.3,71.2,29.94,NW,323,0.0,0.0,93,0.00,,---,0.44,VWS V13.01,2013-07-11 04:43:00,
2013-07-10 23:48:00,73.3,71.2,29.93,NW,322,0.0,0.0,93,0.00,,---,0.44,VWS V13.01,2013-07-11 04:48:00,
2013-07-10 23:53:00,73.3,71.2,29.93,NW,323,0.0,0.0,93,0.00,,---,0.44,VWS V13.01,2013-07-11 04:53:00,
2013-07-10 23:58:00,73.3,71.2,29.93,NW,323,0.0,0.0,93,0.00,,---,0.44,VWS V13.01,2013-07-11 04:58:00,